Lake Charles Regional, LA

3:35 AM CDT on August 19, 2017 (GMT -0500)
Lake Charles Regional

Weather History for KLCH - October, 2010

Change the Weather History Date:

Sunday, October 31, 2010

  Actual Average Record
Temperature  
Mean Temperature 66 °F 66 °F  
Max Temperature 82 °F 77 °F 88 °F (1971)
Min Temperature 50 °F 55 °F 30 °F (1993)
Degree Days  
Heating Degree Days 0 3  
Month to date heating degree days 13 34  
Since 1 July heating degree days 13 36  
Cooling Degree Days 1 4  
Month to date cooling degree days 195 193  
Year to date cooling degree days 3232 2733  
Growing Degree Days 16 (Base 50)    
Moisture  
Dew Point 59 °F    
Average Humidity 76    
Maximum Humidity 100    
Minimum Humidity 51    
Precipitation  
Precipitation 0.00 in 0.17 in 4.58 in (2015)
Month to date precipitation 2.24 4.90  
Year to date precipitation 28.25 48.38  
Snow  
Snow 0.00 in 0.00 in 0.00 in ()
Month to date snowfall 0.0 0.0  
Since 1 July snowfall 0.0 0.0  
Since 1 September snowfall 0.0 0.0  
Snow Depth 0.00 in    
Sea Level Pressure  
Sea Level Pressure 30.04 in    
Wind  
Wind Speed 5 mph (South)    
Max Wind Speed 14 mph    
Max Gust Speed 18 mph    
Visibility 10 miles    
Events      
T = Trace of Precipitation, MM = Missing Value Source: NWS Daily Summary

Daily Weather History Graph

Daily Weather History Graph

Search for Another Location

Airport or City:

Trip Planner

Search our weather history database for the weather conditions in past years. The results will help you decide how hot, cold, wet, or windy it might be!

Date:

Astronomy

Oct. 31, 2010 Rise Set
Actual Time 7:26 AM CDT 6:26 PM CDT
Civil Twilight 7:01 AM CDT 6:51 PM CDT
Nautical Twilight 6:33 AM CDT 7:19 PM CDT
Astronomical Twilight 6:05 AM CDT 7:47 PM CDT
Moon 1:21 AM CDT (10/31) 2:38 PM CDT (10/31)
Length of Visible Light 11h 49m
Length of Day
11h 00m
Last Quarter, 37% of the Moon is Illuminated
Oct 31
Last Quarter
Nov 5
New
Nov 13
First Quarter
Nov 21
Full
Nov 28
Last Quarter

Hourly Weather History & Observations

Time (CDT) Temp. Heat Index Dew Point Humidity Pressure Visibility Wind Dir Wind Speed Gust Speed Precip Events Conditions
12:53 AM 50.0 °F - 46.9 °F 89% 30.07 in 10.0 mi Calm Calm - N/A   Clear
1:53 AM 51.1 °F - 48.0 °F 89% 30.06 in 10.0 mi Calm Calm - N/A   Clear
2:53 AM 52.0 °F - 48.9 °F 89% 30.05 in 10.0 mi Calm Calm - N/A   Clear
3:53 AM 51.8 °F - 48.2 °F 88% 30.01 in 10.0 mi Calm Calm - N/A   Clear
4:53 AM 53.1 °F - 48.9 °F 86% 30.04 in 10.0 mi Calm Calm - N/A   Clear
5:53 AM 55.0 °F - 51.1 °F 86% 30.04 in 10.0 mi Calm Calm - N/A   Overcast
6:53 AM 57.0 °F - 54.0 °F 89% 30.05 in 10.0 mi Calm Calm - N/A   Overcast
7:53 AM 55.9 °F - 53.1 °F 90% 30.06 in 10.0 mi NNE 3.5 mph - N/A   Scattered Clouds
8:53 AM 62.1 °F - 57.0 °F 84% 30.09 in 10.0 mi NE 3.5 mph - N/A   Scattered Clouds
9:53 AM 70.0 °F - 60.1 °F 71% 30.09 in 10.0 mi Calm Calm - N/A   Partly Cloudy
10:53 AM 75.0 °F - 60.1 °F 60% 30.08 in 10.0 mi Calm Calm - N/A   Clear
11:53 AM 78.1 °F - 62.1 °F 58% 30.07 in 10.0 mi SSW 6.9 mph - N/A   Clear
12:53 PM 80.6 °F 81.8 °F 62.6 °F 54% 30.03 in 10.0 mi WSW 8.1 mph - N/A   Partly Cloudy
1:53 PM 80.1 °F 81.5 °F 63.0 °F 56% 30.02 in 10.0 mi SSW 10.4 mph 16.1 mph N/A   Clear
2:53 PM 82.0 °F 83.1 °F 63.0 °F 52% 30.00 in 10.0 mi SSW 10.4 mph - N/A   Scattered Clouds
3:53 PM 81.0 °F 82.5 °F 64.0 °F 56% 30.00 in 10.0 mi SSW 11.5 mph 18.4 mph N/A   Clear
4:53 PM 79.0 °F - 64.9 °F 62% 30.00 in 10.0 mi SSW 10.4 mph - N/A   Clear
5:53 PM 77.0 °F - 66.0 °F 69% 30.00 in 10.0 mi South 6.9 mph - N/A   Clear
6:53 PM 73.0 °F - 66.0 °F 79% 30.02 in 10.0 mi SSE 8.1 mph - N/A   Clear
7:53 PM 72.0 °F - 66.0 °F 81% 30.03 in 10.0 mi South 6.9 mph - N/A   Clear
8:53 PM 69.1 °F - 66.0 °F 90% 30.04 in 10.0 mi SSE 8.1 mph - N/A   Clear
9:53 PM 69.1 °F - 66.9 °F 93% 30.05 in 10.0 mi SSE 6.9 mph - N/A   Clear
10:53 PM 66.9 °F - 66.0 °F 97% 30.06 in 7.0 mi SE 5.8 mph - N/A   Clear
11:53 PM 66.9 °F - 66.0 °F 97% 30.05 in 4.0 mi Calm Calm - N/A   Clear